Previsão horária em Kabansk

Hoje, 22 Junho, Terça-feira

Tempo Temperatura Precipitação Vento Pressão Humidade
00:00 +14°C° 0 mm 2 m/s 714 mmHg 84%
01:00 +13°C° 0 mm 2 m/s 715 mmHg 90%
02:00 +13°C° 0.1 mm 2 m/s 715 mmHg 92%
03:00 +14°C° 0.1 mm 2 m/s 715 mmHg 93%
04:00 +14°C° 0.1 mm 2 m/s 716 mmHg 95%
05:00 +14°C° 0 mm 2 m/s 716 mmHg 94%
06:00 +13°C° 0 mm 3 m/s 716 mmHg 94%
07:00 +13°C° 0 mm 3 m/s 716 mmHg 93%
08:00 +13°C° 0 mm 3 m/s 717 mmHg 90%
09:00 +13°C° 0 mm 3 m/s 717 mmHg 87%
10:00 +14°C° 0 mm 4 m/s 717 mmHg 84%
11:00 +15°C° 0 mm 4 m/s 717 mmHg 78%
12:00 +17°C° 0 mm 4 m/s 716 mmHg 72%
13:00 +18°C° 0 mm 4 m/s 716 mmHg 66%
14:00 +18°C° 0 mm 4 m/s 716 mmHg 66%
15:00 +18°C° 0 mm 4 m/s 715 mmHg 66%
16:00 +18°C° 0 mm 4 m/s 715 mmHg 66%
17:00 +17°C° 0.1 mm 4 m/s 715 mmHg 70%
18:00 +15°C° 0.1 mm 4 m/s 715 mmHg 75%
19:00 +14°C° 0.1 mm 3 m/s 716 mmHg 79%
20:00 +13°C° 0.1 mm 3 m/s 715 mmHg 84%
21:00 +13°C° 0.1 mm 2 m/s 715 mmHg 88%
22:00 +12°C° 0.1 mm 2 m/s 715 mmHg 93%
23:00 +12°C° 0 mm 2 m/s 715 mmHg 94%

Amanhã, 23 Junho, Quarta-feira

Tempo Temperatura Precipitação Vento Pressão Humidade
00:00 +12°C° 0 mm 1 m/s 715 mmHg 94%
01:00 +12°C° 0 mm 1 m/s 715 mmHg 95%
02:00 +11°C° 0 mm 1 m/s 715 mmHg 95%
03:00 +11°C° 0 mm 1 m/s 715 mmHg 95%
04:00 +11°C° 0 mm 1 m/s 715 mmHg 95%
05:00 +13°C° 0 mm 1 m/s 716 mmHg 89%
06:00 +15°C° 0 mm 1 m/s 716 mmHg 83%
07:00 +18°C° 0 mm 1 m/s 716 mmHg 77%
08:00 +19°C° 0 mm 1 m/s 716 mmHg 72%
09:00 +20°C° 0 mm 2 m/s 715 mmHg 66%
10:00 +21°C° 0 mm 2 m/s 715 mmHg 61%
11:00 +23°C° 0.1 mm 2 m/s 715 mmHg 59%
12:00 +24°C° 0.1 mm 2 m/s 715 mmHg 57%
13:00 +25°C° 0.1 mm 3 m/s 715 mmHg 56%
14:00 +25°C° 0.1 mm 3 m/s 714 mmHg 57%
15:00 +24°C° 0.1 mm 3 m/s 714 mmHg 58%
16:00 +24°C° 0.1 mm 3 m/s 714 mmHg 58%
17:00 +23°C° 0 mm 2 m/s 714 mmHg 64%
18:00 +20°C° 0 mm 2 m/s 714 mmHg 70%
19:00 +20°C° 0 mm 1 m/s 714 mmHg 76%
20:00 +19°C° 0 mm 1 m/s 714 mmHg 80%
21:00 +16°C° 0 mm 1 m/s 714 mmHg 85%
22:00 +14°C° 0 mm 1 m/s 714 mmHg 89%
23:00 +14°C° 0 mm 1 m/s 714 mmHg 91%

Depois de amanhã, 24 Junho, Quinta-feira

Tempo Temperatura Precipitação Vento Pressão Humidade
00:00 +13°C° 0 mm 1 m/s 714 mmHg 92%
01:00 +12°C° 0 mm 1 m/s 714 mmHg 94%
02:00 +12°C° 0 mm 1 m/s 714 mmHg 95%
03:00 +12°C° 0 mm 1 m/s 715 mmHg 95%
04:00 +11°C° 0 mm 1 m/s 715 mmHg 96%
05:00 +13°C° 0 mm 1 m/s 715 mmHg 90%
06:00 +15°C° 0 mm 2 m/s 715 mmHg 83%
07:00 +17°C° 0 mm 2 m/s 715 mmHg 77%
08:00 +18°C° 0 mm 3 m/s 715 mmHg 73%
09:00 +20°C° 0 mm 3 m/s 715 mmHg 69%
10:00 +22°C° 0 mm 4 m/s 714 mmHg 65%
11:00 +22°C° 0 mm 4 m/s 714 mmHg 62%
12:00 +23°C° 0 mm 4 m/s 714 mmHg 60%
13:00 +25°C° 0 mm 4 m/s 713 mmHg 58%
14:00 +25°C° 0 mm 4 m/s 713 mmHg 59%
15:00 +23°C° 0 mm 4 m/s 713 mmHg 59%
16:00 +23°C° 0 mm 4 m/s 713 mmHg 60%
17:00 +21°C° 0.2 mm 4 m/s 713 mmHg 69%
18:00 +19°C° 0.2 mm 4 m/s 714 mmHg 79%
19:00 +17°C° 0.2 mm 4 m/s 714 mmHg 88%
20:00 +15°C° 0.3 mm 4 m/s 714 mmHg 91%
21:00 +14°C° 0.3 mm 3 m/s 714 mmHg 93%
22:00 +14°C° 0.3 mm 3 m/s 714 mmHg 96%
23:00 +13°C° 0 mm 3 m/s 714 mmHg 96%

25 Junho, Sexta-feira

Tempo Temperatura Precipitação Vento Pressão Humidade
00:00 +13°C° 0 mm 3 m/s 714 mmHg 96%
01:00 +13°C° 0 mm 3 m/s 714 mmHg 96%
02:00 +13°C° 0.1 mm 3 m/s 714 mmHg 96%
03:00 +14°C° 0.1 mm 2 m/s 714 mmHg 96%
04:00 +14°C° 0.1 mm 2 m/s 714 mmHg 96%
05:00 +14°C° 0 mm 2 m/s 714 mmHg 95%
06:00 +14°C° 0 mm 2 m/s 714 mmHg 94%
07:00 +14°C° 0 mm 3 m/s 714 mmHg 93%
08:00 +16°C° 0 mm 2 m/s 714 mmHg 88%
09:00 +17°C° 0 mm 2 m/s 714 mmHg 82%
10:00 +19°C° 0 mm 2 m/s 714 mmHg 77%
11:00 +20°C° 0 mm 2 m/s 714 mmHg 71%
12:00 +21°C° 0 mm 2 m/s 714 mmHg 66%
13:00 +24°C° 0 mm 2 m/s 714 mmHg 61%
14:00 +24°C° 0 mm 2 m/s 714 mmHg 60%
15:00 +24°C° 0 mm 2 m/s 713 mmHg 60%
16:00 +24°C° 0 mm 2 m/s 713 mmHg 60%
17:00 +23°C° 0 mm 2 m/s 713 mmHg 66%
18:00 +22°C° 0 mm 1 m/s 713 mmHg 72%
19:00 +20°C° 0 mm 1 m/s 713 mmHg 78%
20:00 +19°C° 0.1 mm 1 m/s 713 mmHg 83%
21:00 +16°C° 0.1 mm 1 m/s 714 mmHg 87%
22:00 +15°C° 0.1 mm 1 m/s 714 mmHg 92%
23:00 +15°C° 0 mm 1 m/s 714 mmHg 92%

26 Junho, Sábado

Tempo Temperatura Precipitação Vento Pressão Humidade
00:00 +13°C° 0 mm 0 m/s 714 mmHg 93%
01:00 +13°C° 0 mm 0 m/s 714 mmHg 93%
02:00 +13°C° 0 mm 0 m/s 714 mmHg 93%
03:00 +13°C° 0 mm 0 m/s 715 mmHg 92%
04:00 +14°C° 0 mm 1 m/s 715 mmHg 92%
05:00 +16°C° 0 mm 1 m/s 715 mmHg 85%
06:00 +19°C° 0 mm 1 m/s 715 mmHg 79%
07:00 +21°C° 0 mm 1 m/s 716 mmHg 72%
08:00 +22°C° 0 mm 1 m/s 716 mmHg 67%
09:00 +24°C° 0 mm 2 m/s 716 mmHg 62%
10:00 +25°C° 0 mm 2 m/s 716 mmHg 57%
11:00 +26°C° 0 mm 2 m/s 715 mmHg 55%
12:00 +27°C° 0 mm 2 m/s 715 mmHg 53%
13:00 +28°C° 0 mm 2 m/s 715 mmHg 51%
14:00 +27°C° 0 mm 2 m/s 715 mmHg 52%
15:00 +27°C° 0 mm 3 m/s 714 mmHg 53%
16:00 +27°C° 0 mm 3 m/s 714 mmHg 54%
17:00 +25°C° 0 mm 2 m/s 714 mmHg 61%
18:00 +23°C° 0 mm 2 m/s 714 mmHg 68%
19:00 +21°C° 0 mm 2 m/s 714 mmHg 75%
20:00 +19°C° 0 mm 2 m/s 714 mmHg 78%
21:00 +18°C° 0 mm 2 m/s 714 mmHg 81%
22:00 +16°C° 0 mm 2 m/s 714 mmHg 84%
23:00 +16°C° 0 mm 1 m/s 714 mmHg 84%

27 Junho, Domingo

Tempo Temperatura Precipitação Vento Pressão Humidade
00:00 +16°C° 0 mm 1 m/s 714 mmHg 83%
01:00 +16°C° 0 mm 1 m/s 714 mmHg 82%
02:00 +15°C° 0 mm 1 m/s 715 mmHg 85%
03:00 +14°C° 0 mm 2 m/s 715 mmHg 88%
04:00 +13°C° 0 mm 2 m/s 716 mmHg 90%
05:00 +14°C° 0 mm 2 m/s 716 mmHg 88%
06:00 +15°C° 0 mm 2 m/s 716 mmHg 85%
07:00 +16°C° 0 mm 3 m/s 717 mmHg 82%
08:00 +18°C° 0 mm 3 m/s 717 mmHg 75%
09:00 +20°C° 0 mm 3 m/s 716 mmHg 69%
10:00 +22°C° 0 mm 3 m/s 716 mmHg 62%
11:00 +24°C° 0 mm 3 m/s 716 mmHg 60%
12:00 +25°C° 0 mm 3 m/s 715 mmHg 57%
13:00 +26°C° 0 mm 2 m/s 715 mmHg 54%
14:00 +27°C° 0 mm 2 m/s 714 mmHg 54%
15:00 +27°C° 0 mm 3 m/s 714 mmHg 53%
16:00 +27°C° 0 mm 3 m/s 713 mmHg 53%
17:00 +25°C° 0 mm 2 m/s 713 mmHg 60%
18:00 +23°C° 0 mm 2 m/s 712 mmHg 68%
19:00 +19°C° 0 mm 2 m/s 712 mmHg 76%
20:00 +18°C° 0 mm 2 m/s 712 mmHg 77%
21:00 +17°C° 0 mm 2 m/s 712 mmHg 79%
22:00 +16°C° 0 mm 2 m/s 711 mmHg 81%
23:00 +15°C° 0 mm 2 m/s 712 mmHg 86%
Mostrar mais

Necessitamos do seu Consentimento

A Meteoprog e os seus Fornecedores de Serviços podem armazenar e aceder a dados pessoais como cookies, identificadores do dispositivo ou outras tecnologias semelhantes existentes no seu dispositivo e processar estes dados para personalizar conteúdos e anúncios, assim como funcionalidades nas redes sociais e análise de tráfego.

  • Armazenar e/ou aceder a informações no seu dispositivo

    Os cookies, identificadores do dispositivo ou outras informações podem ser armazenados ou acedidos no seu dispositivo, para os fins acima indicados.

  • Anúncios e conteúdos personalizados, medição de anúncios e conteúdos, dados sobre o público-alvo e desenvolvimento de produtos

    Os anúncios e os conteúdos podem ser personalizados com base num perfil. Podem ser adicionados dados adicionais para uma maior personalização dos anúncios e dos conteúdos. A eficácia dos anúncios e dos conteúdos pode ser medida. Podem ser obtidas informações sobre o público que visualizou os anúncios e os conteúdos. Estes dados podem ser usados para desenvolver ou melhorar sistemas, softwares ou a experiência do utilizador.

Ao clicar em "Eu concordo”, permitirá o uso de cookies, identificadores do dispositivo e web beacons mencionados ou outras tecnologias semelhantes. As configurações do navegador do seu dispositivo podem ser alteradas.

Para certos fins, podem ser invocados interesses legítimos ao invés de consentimento. Pode ler mais informação sobre este assunto na nossa Política de Privacidade e Cookies.